GW1174 Weather Reports


time (UTC)temp
F
wind
direction
speed
knots
gust
knots
rain 1hr
in
rain 24hr
in
rain mn
in
humidity
%
barometer
mb
20260902102057 32 23 7.8 9.6 0.00 0.20 0.20 24 1053.3
20260902102022 73 180 3.5 7.8 0.00 0.00 0.00 61 1021.8
20260902101017 72 203 3.5 8.7 0.00 0.00 0.00 61 1021.7
20260902100017 72 180 4.3 7.0 0.00 0.00 0.00 62 1021.7
20260902095017 31 17 8.7 9.6 0.00 0.20 0.20 23 1052.2
20260902094017 31 16 8.7 9.6 0.00 0.20 0.20 23 1051.9
20260902093017 71 158 2.6 6.1 0.00 0.00 0.00 66 1022.0
20260902092017 31 13 8.7 10.4 0.00 0.20 0.20 22 1051.3
20260902091017 69 225 1.7 3.5 0.00 0.00 0.00 70 1022.1
20260902090017 67 158 0.9 1.7 0.00 0.00 0.00 72 1022.1
20260902085017 30 9 8.7 10.4 0.00 0.20 0.20 21 1050.5
20260902084017 66 135 1.7 5.2 0.00 0.00 0.00 73 1022.1
20260902083017 30 6 8.7 10.4 0.00 0.20 0.20 21 1050.0
20260902082017 30 5 8.7 10.4 0.00 0.20 0.20 21 1049.8
20260902081017 63 113 2.6 4.3 0.00 0.00 0.00 78 1021.9
20260902080017 30 4 8.7 10.4 0.00 0.20 0.20 21 1049.5
20260902075017 30 3 8.7 10.4 0.00 0.20 0.20 20 1049.4
20260902074017 30 2 8.7 10.4 0.00 0.20 0.20 20 1049.2
20260902073017 60 180 1.7 3.5 0.00 0.00 0.00 89 1021.7
20260902072017 31 1 8.7 10.4 0.00 0.20 0.20 20 1049.0
20260902071037 31 1 8.7 10.4 0.00 0.20 0.20 20 1048.9
20260902070036 57 203 0.9 1.7 0.00 0.00 0.00 93 1021.6
20260902065037 56 0.0 1.7 0.00 0.00 0.00 93 1021.6
20260902064017 32 0 8.7 10.4 0.00 0.20 0.20 20 1048.8
20260902063037 54 135 0.9 1.7 0.00 0.00 0.00 94 1021.5
20260902062017 52 0.0 1.7 0.00 0.00 0.00 93 1021.6
20260902061017 34 0 8.7 10.4 0.00 0.20 0.20 20 1048.8
20260902060017 34 0 8.7 10.4 0.00 0.20 0.20 20 1048.8
20260902055017 35 1 8.7 10.4 0.00 0.20 0.20 20 1048.9
20260902054017 35 1 8.7 10.4 0.00 0.20 0.20 20 1049.0
20260902053017 36 1 8.7 10.4 0.00 0.20 0.20 20 1049.1
20260902052017 36 2 8.7 10.4 0.00 0.20 0.20 20 1049.2
20260902051017 37 3 8.7 10.4 0.00 0.20 0.20 20 1049.3
20260902050017 38 3 8.7 10.4 0.00 0.20 0.20 21 1049.4
20260902045017 38 4 8.7 10.4 0.00 0.20 0.20 21 1049.6
20260902044017 39 5 8.7 10.4 0.00 0.20 0.20 21 1049.8
20260902043017 40 6 8.7 10.4 0.00 0.20 0.20 21 1049.9
20260902042037 41 7 8.7 10.4 0.00 0.20 0.20 21 1050.2
20260902041017 41 8 8.7 10.4 0.00 0.20 0.20 21 1050.4
20260902040017 42 9 8.7 10.4 0.00 0.20 0.20 22 1050.6
20260902035017 43 11 8.7 10.4 0.00 0.20 0.20 22 1050.9
20260902034017 44 12 8.7 10.4 0.00 0.20 0.20 22 1051.1
20260902033037 45 13 8.7 10.4 0.00 0.20 0.20 22 1051.4
20260902032017 45 15 8.7 10.4 0.00 0.20 0.20 22 1051.7
20260902031017 46 16 8.7 9.6 0.00 0.20 0.20 23 1052.0
20260902030017 48 0.0 0.0 0.00 0.00 0.00 92 1021.2
20260902025017 48 20 7.8 9.6 0.00 0.20 0.20 23 1052.7
20260902024017 49 22 7.8 9.6 0.00 0.20 0.20 24 1053.1
20260902023037 50 24 7.8 9.6 0.00 0.20 0.20 24 1053.5
20260902022037 51 26 7.8 9.6 0.00 0.20 0.20 24 1053.9
20260902021016 50 0.0 0.9 0.00 0.00 0.00 92 1021.2
20260902020017 52 30 7.8 9.6 0.00 0.20 0.20 25 1054.7
20260902015017 53 32 7.8 9.6 0.01 0.20 0.20 25 1055.1
20260902014040 50 0.0 0.0 0.00 0.00 0.00 91 1021.4
20260902014037 54 34 7.8 9.6 0.02 0.20 0.20 26 1055.6
20260902013017 55 37 7.8 9.6 0.03 0.20 0.20 26 1056.0
20260902012057 56 39 7.8 9.6 0.04 0.20 0.20 27 1056.5
20260902011017 57 42 7.8 9.6 0.05 0.20 0.20 27 1057.0
20260902011015 50 0.0 0.0 0.00 0.00 0.00 91 1021.6
20260902010017 57 44 7.8 9.6 0.06 0.20 0.20 27 1057.5
20260902005016 51 0.0 0.9 0.00 0.00 0.00 91 1021.8
20260902004018 51 0.0 0.0 0.00 0.00 0.00 91 1021.7
20260902003020 51 0.0 0.9 0.00 0.00 0.00 91 1021.5
20260902003017 60 52 7.8 8.7 0.07 0.20 0.17 29 1059.1
20260902002018 51 0.0 0.0 0.00 0.00 0.00 91 1021.5
20260902001018 52 0.0 0.0 0.00 0.00 0.00 90 1021.6
20260902000017 52 0.0 0.0 0.00 0.00 0.00 90 1021.5
20260901235018 52 0.0 0.0 0.00 0.00 0.00 90 1021.6
20260901234018 52 0.0 0.0 0.00 0.00 0.00 90 1021.6
20260901233017 64 70 7.0 8.7 0.06 0.20 0.10 32 1062.6
20260901232018 52 0.0 0.0 0.00 0.00 0.00 90 1021.4
20260901231018 52 0.0 0.0 0.00 0.00 0.00 89 1021.5
20260901230017 66 79 7.0 7.8 0.07 0.20 0.07 33 1064.5
20260901225037 66 83 7.0 7.8 0.06 0.20 0.06 34 1065.1
20260901225017 52 0.0 0.0 0.00 0.01 0.00 89 1021.6
20260901224019 53 0.0 0.0 0.00 0.01 0.00 89 1021.5
20260901223057 53 0.0 0.0 0.00 0.01 0.00 88 1021.4
20260901222037 68 93 6.1 7.8 0.03 0.20 0.03 35 1067.1
20260901221017 68 96 6.1 7.8 0.02 0.20 0.02 36 1067.8
20260901220018 54 0.0 0.0 0.00 0.01 0.01 87 1021.4
20260901215037 69 103 6.1 7.8 0.00 0.20 0.20 37 1069.2
20260901214037 69 107 6.1 7.0 0.00 0.20 0.20 38 1069.9
20260901213017 69 110 6.1 7.0 0.00 0.20 0.20 38 1070.6
20260901212137 69 114 6.1 7.0 0.00 0.20 0.20 39 1071.3
20260901211017 70 118 6.1 7.0 0.00 0.20 0.20 40 1072.0
20260901210057 70 121 6.1 7.0 0.00 0.20 0.20 40 1072.8
20260901205017 70 125 6.1 7.0 0.00 0.20 0.20 41 1073.5
20260901204017 70 129 5.2 7.0 0.00 0.20 0.20 41 1074.3
20260901203017 56 0.0 0.0 0.00 0.02 0.01 84 1021.1
20260901202017 70 136 5.2 6.1 0.00 0.20 0.20 43 1075.8
20260901201017 70 140 5.2 6.1 0.00 0.20 0.20 43 1076.5
20260901200017 70 144 5.2 6.1 0.00 0.20 0.20 44 1077.3
20260901195017 70 148 5.2 6.1 0.00 0.20 0.20 45 1078.0
20260901194039 59 0.0 0.0 0.00 0.02 0.01 79 1021.0
20260901193017 69 156 5.2 6.1 0.00 0.20 0.20 46 1079.6
20260901192017 69 159 5.2 6.1 0.00 0.20 0.20 47 1080.3
20260901191017 69 163 4.3 6.1 0.00 0.20 0.20 47 1081.1
20260901190017 69 167 4.3 5.2 0.00 0.20 0.20 48 1081.9
20260901185017 68 171 4.3 5.2 0.00 0.20 0.20 49 1082.7
20260901184017 68 175 4.3 5.2 0.00 0.20 0.20 49 1083.4
20260901183017 67 179 4.3 5.2 0.00 0.20 0.20 50 1084.2
20260901182017 67 183 4.3 5.2 0.00 0.20 0.20 51 1085.0
20260901181017 66 187 4.3 5.2 0.00 0.20 0.20 51 1085.8
20260901180017 66 191 4.3 5.2 0.00 0.20 0.20 52 1086.5
20260901175017 65 195 4.3 5.2 0.00 0.20 0.20 52 1087.3
20260901174018 65 199 3.5 4.3 0.00 0.20 0.20 53 1088.1
20260901173058 64 203 3.5 4.3 0.00 0.20 0.20 54 1088.9
20260901173056 69 270 0.9 2.6 0.00 0.02 0.01 61 1020.1
20260901172016 69 225 1.7 3.5 0.00 0.02 0.01 59 1020.0
20260901171017 63 210 3.5 4.3 0.00 0.20 0.20 55 1090.4
20260901170038 69 203 2.6 5.2 0.00 0.02 0.01 59 1020.2
20260901165038 70 225 3.5 7.0 0.00 0.02 0.01 57 1020.2
20260901164018 70 225 3.5 7.8 0.00 0.02 0.01 57 1020.4
20260901163018 70 248 3.5 7.8 0.00 0.02 0.01 55 1020.4
20260901162018 71 270 5.2 10.4 0.00 0.02 0.01 55 1020.4
20260901161017 72 225 5.2 8.7 0.00 0.02 0.01 53 1020.6
20260901160018 73 248 3.5 7.0 0.00 0.02 0.01 54 1020.6
20260901155017 72 293 1.7 5.2 0.00 0.02 0.01 57 1020.5
20260901154038 71 293 0.9 5.2 0.00 0.02 0.01 59 1020.6
20260901153018 71 225 1.7 3.5 0.00 0.02 0.01 58 1020.6
20260901152018 70 293 1.7 7.0 0.00 0.02 0.01 58 1020.6
20260901151057 71 293 2.6 7.0 0.00 0.02 0.01 58 1020.6
20260901150017 72 338 2.6 7.8 0.00 0.02 0.01 56 1020.6
20260901145017 73 225 2.6 5.2 0.00 0.02 0.01 54 1020.8
20260901144017 72 270 3.5 7.0 0.00 0.02 0.01 55 1020.8
20260901143017 73 270 3.5 7.0 0.00 0.02 0.01 55 1020.9
20260901142017 72 293 4.3 8.7 0.00 0.02 0.01 57 1020.7
20260901141019 72 225 2.6 6.1 0.00 0.02 0.01 55 1020.8
20260901141017 48 276 1.7 2.6 0.00 0.20 0.20 66 1103.4
20260901140017 74 293 3.5 7.8 0.00 0.02 0.01 55 1021.0
20260901135017 47 282 1.7 2.6 0.00 0.20 0.20 67 1104.7
20260901134017 70 315 0.9 4.3 0.00 0.02 0.01 61 1020.9
20260901133017 70 315 0.9 4.3 0.00 0.02 0.01 60 1020.9
20260901132022 71 338 1.7 7.8 0.00 0.02 0.01 59 1020.9
20260901132017 44 292 1.7 1.7 0.00 0.20 0.20 69 1106.5
20260901131037 43 295 1.7 1.7 0.00 0.20 0.20 69 1107.1
20260901130017 43 298 1.7 1.7 0.00 0.20 0.20 70 1107.7
20260901125017 73 293 3.5 8.7 0.00 0.02 0.01 59 1021.4
20260901124037 41 304 1.7 1.7 0.00 0.20 0.20 71 1108.9
20260901123017 40 307 0.9 1.7 0.00 0.20 0.20 71 1109.4
20260901122017 69 293 4.3 10.4 0.00 0.02 0.01 63 1021.2
20260901121038 39 312 0.9 1.7 0.00 0.20 0.20 72 1110.5
20260901121018 70 338 1.7 8.7 0.00 0.02 0.01 62 1021.2
20260901120037 38 315 0.9 1.7 0.00 0.20 0.20 72 1111.0
20260901115017 37 317 0.9 0.9 0.00 0.20 0.20 73 1111.5
20260901114017 37 320 0.9 0.9 0.00 0.20 0.20 73 1112.0
20260901113017 70 248 4.3 8.7 0.00 0.02 0.01 63 1021.3
20260901112057 67 293 4.3 9.6 0.00 0.02 0.01 66 1021.3
20260901112017 35 325 0.9 0.9 0.00 0.20 0.20 74 1113.0
20260901111017 68 315 5.2 11.3 0.00 0.02 0.01 66 1021.4
20260901110037 69 293 4.3 10.4 0.00 0.02 0.01 66 1021.4
20260901105017 68 270 4.3 12.2 0.00 0.02 0.01 66 1021.3
20260901104017 33 333 0.9 0.9 0.00 0.20 0.20 76 1114.7
20260901103017 66 293 4.3 10.4 0.00 0.02 0.01 69 1021.2